This demonstration page uses our WeatherBlox Daily Observations layout. Learn more.

Left ArrowRight Arrow

39.08367, -84.50855

Hourly Observations for April 9, 2019

Temp ( °F °C ) Dew Point ( °F °C ) Humidity (%) Winds ( mph kmh ) Pressure ( in mb ) Visibility ( mi km ) Precip ( " mm )
12:53 am 00:53 Clear 56 13.3 55 12.8 97 97 Calm 29.81 1010 10 16.0934 0 0
1:53 am 01:53 Clear 56 13.3 54 12.2 93 93 Calm 29.81 1010 10 16.0934 0 0
2:41 am 02:41 Clear with Mist and Fog 54 12.2 53 11.7 97 97 Calm 29.81 1010 1.25 2.011675 0 0
2:47 am 02:47 Mostly Cloudy with Fog 54 12 54 12 100 100 Calm 29.81 1010 0.25 0.402335 0 0
2:53 am 02:53 Clear with Fog 54 12.2 53 11.7 97 97 Calm 29.8 1009 0.5 0.80467 0 0
3:12 am 03:12 Clear with Mist and Fog 53 11.7 52 11.1 96 96 Calm 29.8 1009 1 1.60934 0 0
3:19 am 03:19 Clear with Mist and Fog 53 11.7 52 11.1 96 96 Calm 29.8 1009 0.75 1.207005 0 0
3:24 am 03:24 Clear with Mist and Fog 55 12.8 54 12.2 96 96 Calm 29.8 1009 2.5 4.02335 0 0
3:34 am 03:34 Clear with Mist and Fog 54 12.2 53 11.7 97 97 Calm 29.8 1009 0.75 1.207005 0 0
3:49 am 03:49 Clear with Mist and Fog 52 11 50 10 94 94 Calm 29.8 1009 2 3.21868 0 0
3:53 am 03:53 Clear with Mist and Fog 52 11.1 51 10.6 97 97 Calm 29.78 1009 4 6.43736 0 0
3:55 am 03:55 Clear with Mist and Fog 52 11.1 51 10.6 97 97 Calm 29.8 1009 1.25 2.011675 0 0
3:58 am 03:58 Mostly Cloudy with Fog 51 10.6 51 10.6 100 100 Calm 29.8 1009 0.5 0.80467 0 0
4:08 am 04:08 Mostly Cloudy with Fog 51 10.6 50 10 96 96 Calm 29.8 1009 0.25 0.402335 0 0
4:29 am 04:29 Mostly Cloudy with Fog 48 8.9 47 8.3 96 96 SSW 5 7 29.8 1009 0.5 0.80467 0 0
4:45 am 04:45 Mostly Cloudy with Fog 49 9.4 49 9.4 100 100 SSW 5 7 29.8 1009 0.25 0.402335 0 0
4:53 am 04:53 Mostly Cloudy with Fog 49 9.4 48 8.9 97 97 S 3 6 29.78 1009 0.5 0.80467 0 0
5:01 am 05:01 Mostly Clear with Mist and Fog 49 9.4 48 8.9 97 97 SSW 5 7 29.8 1009 1.25 2.011675 0 0
5:03 am 05:03 Mostly Clear with Mist and Fog 49 9.4 48 8.9 97 97 SSW 5 7 29.8 1009 4 6.43736 0 0
5:50 am 05:50 Clear with Mist and Fog 50 10 48 9 94 94 WSW 5 7 29.8 1009 2.5 4.02335 0 0
5:53 am 05:53 Clear with Mist and Fog 50 10 50 10 100 100 WSW 5 7 29.78 1008 4 6.43736 0 0
6:10 am 06:10 Clear with Mist and Fog 49 9.4 48 8.9 97 97 Calm 29.81 1009 1.75 2.816345 0 0
6:18 am 06:18 Clear with Fog 50 10 49 9.4 96 96 Calm 29.81 1009 0.5 0.80467 0 0
6:30 am 06:30 Clear with Mist and Fog 51 10.6 50 10 96 96 WSW 3 6 29.81 1009 1.75 2.816345 0 0
6:33 am 06:33 Clear with Mist and Fog 50 10 50 10 100 100 SW 3 6 29.81 1009 3 4.82802 0 0
6:46 am 06:46 Clear with Mist and Fog 51 10.6 51 10.6 100 100 Calm 29.8 1009 1.5 2.41401 0 0
6:53 am 06:53 Clear with Patchy Fog 47 8.3 47 8.3 100 100 Calm 29.79 1009 10 16.0934 0 0
7:12 am 07:12 Partly Cloudy with Patchy Fog 48 8.9 47 8.3 96 96 SSW 5 7 29.81 1009 10 16.0934 0 0
7:53 am 07:53 Sunny with Patchy Fog 49 9.4 48 8.9 97 97 Calm 29.81 1009 10 16.0934 0 0
8:53 am 08:53 Sunny 61 16.1 48 8.9 63 63 NNW 14 22 29.82 1010 10 16.0934 0 0
9:53 am 09:53 Sunny 63 17.2 44 6.7 50 50 N 13 20 29.84 1010 10 16.0934 0 0
10:53 am 10:53 Sunny 65 18.3 40 4.4 40 40 N 13 20 29.85 1011 10 16.0934 0 0
11:53 am 11:53 Sunny 66 18.9 38 3.3 36 36 NNW 14 22 29.86 1011 10 16.0934 0 0
1:53 pm 13:53 Sunny 69 20.6 38 3.3 32 32 NNW 7 11 29.84 1011 10 16.0934 0 0
2:53 pm 14:53 Sunny 70 21.1 35 1.7 28 28 N 9 15 29.83 1010 10 16.0934 0 0
3:53 pm 15:53 Sunny 70 21.1 33 0.6 26 26 N 10 17 29.81 1010 10 16.0934 0 0
4:53 pm 16:53 Sunny 71 21.7 31 -0.6 23 23 WNW 12 19 29.8 1009 10 16.0934 0 0
5:53 pm 17:53 Sunny 70 21.1 27 -2.8 20 20 N 12 19 29.81 1009 10 16.0934 0 0
6:53 pm 18:53 Sunny 68 20 32 0 26 26 NNW 10 17 29.82 1010 10 16.0934 0 0
7:53 pm 19:53 Sunny 64 17.8 31 -0.6 29 29 N 8 13 29.83 1010 10 16.0934 0 0
8:53 pm 20:53 Clear 63 17.2 32 0 31 31 Calm 29.84 1010 10 16.0934 0 0
9:53 pm 21:53 Clear 54 12.2 44 6.7 69 69 Calm 29.86 1011 10 16.0934 0 0
10:53 pm 22:53 Clear 51 10.6 43 6.1 74 74 Calm 29.87 1011 10 16.0934 0 0
11:53 pm 23:53 Clear 48 8.9 41 5 77 77 Calm 29.86 1011 10 16.0934 0 0

Powered by AerisWeather